SCP
0 0 0 0 0 0 0 0 0 0 0 0 0 0 0 0 0 0 0 0 0 0 0 0 0 0 0 0 0 0 0 0 0 0 0 0 0 0
0 0 0 0 0 0 0 0 0 0 0 0 0 0 0 0 0 0 0 0 0 0 0 0 0 0 0 0 0 0 0 0 0 0 0 0 0 0
0 0 0 0 0 0 0 0 0 0 0 0 0 0 0 0 0 0 0 0 0 0 0 0 0 0 0 0 0 0 0 0 0 0 0 0 0 0
0 0 0 0 0 0 0 0 0 0 0 0 0 0 0 0 0 0 0 0 0 0 0 0 0 0 0 0 0 0 0 0 0 0 0 0 0 0
0 0 0 0 0 0 0 0 0 0 0 0 0 0 0 0 0 0 0 0 0 0 0 0 0 0 0 0 0 0 0 0 0 0 0 0 0 0
0 0 0 0 0 0 0 0 0 0 0 0 0 0 0 0 0 0 0 0 0 0 0 0 0 0 0 0 0 0 0 0 0 0 0 0 0 0
0 0 0 0 0 0 0 0 0 0 0 0 0 0 0 0 0 0 0 0 0 0 0 0 0 0 0 0 0 0 0 0 0 0 0 0 0 0
0 0 0 0 0 0 0 0 0 0 0 0 0 0 0 0 0 0 0 0 0 0 0 0 0 0 0 0 0 0 0 0 0 0 0 0 0 0
0 0 0 0 0 0 0 0 0 0 0 0 0 0 0 0 0 0 0 0 0 0 0 0 0 0 0 0 0 0 0 0 0 0 0 0 0 0
0 0 0 0 0 0 0 0 0 0 0 0 0 0 0 0 0 0 0 0 0 0 0 0 0 0 0 0 0 0 0 0 0 0 0 0 0 0
0 0 0 0 0 0 0 0 0 0 0 0 0 0 0 0 0 0 0 0 0 0 0 0 0 0 0 0 0 0 0 0 0 0 0 0 0 0
0 0 -0 -0 0 0 0 0 0 0 0 0 0 0 0 0 0 0 0 0 0 0 0 0 0 0 0 0 0 0 0 0 0 0 0 0 0 0
0 0 0 0 0 0 0 0 0 0 0 0 0 0 0 0 0 0 0 0 0 0 0 0 0 0 0 0 0 0 0 0 0 0 0 0 0 0
0 0 0 0 0 0 0 0 0 0 0 0 0 0 0 0 0 0 0 0 0 0 0 0 0 0 0 0 0 0 0 0 0 0 0 0 0 0
0 0 0 0 0 0 0 0 0 0 0 0 0 0 0 0 0 0 0 0 0 0 0 0 0 0 0 0 0 0 0 0 0 0 0 0 0 0
0 0 0 0 0 0 0 0 0 0 0 0 0 0 0 0 0 0 0 0 0 0 0 0 0 0 0 0 0 0 0 0 0 0 0 0 0 0
0 0 0 0 0 0 0 0 0 0 0 0 0 0 0 0 0 0 0 0 0 0 0 0 0 0 0 0 0 0 0 0 0 0 0 0 0 0
0 0 0 0 0 0 0 0 0 0 0 0 0 0 0 0 0 0 0 0 0 0 0 0 0 0 0 0 0 0 0 0 0 0 0 0 0 0
0 0 0 0 0 0 0 0 0 0 0 0 0 0 0 0 0 0 0 0 0 0 0 0 0 0 0 0 0 0 0 0 0 0 0 0 0 0
0 0 0 0 0 0 0 0 0 0 0 0 0 0 0 0 0 0 0 0 0 0 0 0 0 0 0 0 0 0 0 0 0 0 0 0 0 0
0 0 0 0 0 0 0 0 0 0 0 0 0 0 0 0 0 0 0 0 0 0 0 0 0 0 0 0 0 0 0 0 0 0 0 0 0 0
0 0 0 0 0 0 0 0 0 0 0 0 0 0 0 0 0 0 0 0 0 0 0 0 0 0 0 0 0 0 0 0 0 0 0 0 0 0
0 0 0 0 0 0 0 0 0 0 0 0 0 0 0 0 0 0 0 0 0 0 0 0 0 0 0 0 0 0 0 0 0 0 0 0 0 0
Wind_Speed
2 2 2 1 1 1 2 3 5 2 2 2 1 2 2 3 4 3 3 6 8 8 8 8 8 7 7 7 7 7 7 7 7 7 8 8 9 9
2 2 2 1 1 2 2 2 3 4 2 3 2 2 2 3 5 4 4 7 8 9 9 9 9 9 9 9 8 9 9 9 9 9 8 8 9 9
2 2 2 1 2 2 2 2 2 3 2 2 1 1 1 2 2 2 3 3 4 9 10 10 10 10 10 10 10 10 10 9 9 9 9 9 9 10
3 3 2 2 2 1 1 1 1 2 3 2 1 1 2 2 2 3 3 3 4 7 9 10 10 10 11 11 11 11 11 11 11 11 11 11 11 11
4 4 3 3 2 1 1 1 1 1 2 2 2 1 2 1 1 2 2 2 3 5 7 8 9 10 11 12 12 12 12 12 12 12 12 12 12 12
4 4 4 4 4 3 2 2 1 1 1 1 1 1 1 1 0 1 2 2 3 3 4 4 6 9 10 12 12 12 13 13 13 13 13 13 13 12
3 4 4 6 6 5 3 3 2 2 1 1 1 1 1 1 1 1 2 3 3 2 2 3 3 3 5 8 10 12 13 14 14 14 14 14 14 13
4 3 4 5 6 6 6 7 6 4 3 2 2 3 4 3 2 2 1 1 3 3 1 3 2 4 5 4 8 11 12 12 13 14 14 14 14 14
5 4 4 4 5 3 4 4 5 7 8 5 4 5 4 4 3 2 3 3 4 4 1 4 3 4 5 6 10 10 10 11 12 12 13 13 14 14
5 5 4 4 5 5 4 3 4 5 6 6 6 6 6 5 5 4 4 3 4 3 3 3 4 4 5 5 8 10 10 10 11 12 12 13 13 13
5 5 6 6 9 9 5 5 5 5 7 9 9 8 9 8 5 2 2 1 4 4 3 3 4 3 4 4 6 9 9 10 11 11 12 12 12 11
4 4 7 7 9 9 6 5 6 6 4 3 4 6 6 7 8 6 5 4 3 4 3 3 3 2 4 4 3 4 5 8 11 12 12 12 11 5
4 4 4 7 8 8 8 6 8 6 3 4 4 4 4 4 4 5 6 5 5 6 5 3 3 2 3 4 4 4 4 5 4 6 9 12 11 7
5 4 4 7 8 8 7 7 9 5 2 2 3 4 4 4 5 5 6 7 7 8 6 4 4 4 3 4 5 4 4 4 4 5 5 7 9 11
5 6 6 7 7 6 8 9 6 3 3 3 4 5 4 5 4 3 4 5 5 7 7 5 5 4 4 5 5 5 4 4 4 4 4 4 4 4
4 4 5 5 4 4 4 4 4 4 4 5 4 5 3 3 3 3 3 3 3 5 5 5 6 5 5 6 5 6 5 4 4 4 4 5 4 4
4 2 1 1 2 2 2 3 3 2 4 4 4 4 4 4 4 3 3 2 3 4 5 4 4 4 6 5 5 6 5 5 5 5 4 5 5 5
5 3 3 4 4 3 3 3 3 3 4 3 3 4 4 4 4 3 3 3 4 4 4 4 3 3 3 4 7 6 5 5 5 5 4 4 6 6
4 3 3 4 3 3 3 3 3 3 3 3 3 3 3 3 3 3 3 3 4 4 5 4 2 2 4 7 6 6 5 5 5 4 4 5 6 7
2 3 3 3 3 3 3 3 3 2 2 2 3 3 3 3 3 3 3 4 4 4 4 4 3 4 5 6 6 6 7 6 4 5 5 5 6 8
3 2 2 2 2 1 1 1 1 2 2 2 3 3 3 3 3 4 4 5 5 4 5 6 6 7 5 3 4 5 5 7 8 6 5 5 6 5
1 1 1 1 1 1 1 1 1 1 2 2 2 2 2 3 4 4 4 4 5 5 7 6 6 4 2 4 7 8 7 7 7 10 11 10 6 5
1 1 1 1 1 0 0 0 1 1 2 2 2 2 2 3 3 4 4 5 5 6 6 6 4 3 4 5 6 7 9 8 5 5 6 9 11 13
Wind_Direction
127 124 120 102 111 129 137 145 145 153 255 269 270 244 215 210 218 209 224 237 236 239 243 245 245 245 245 246 248 253 255 256 259 262 263 265 267 270
142 121 110 106 91 89 113 123 138 147 193 248 245 247 219 211 214 214 231 244 245 245 246 248 249 249 249 248 248 250 252 254 256 258 259 261 261 264
153 137 139 126 98 82 86 97 118 135 161 259 271 264 209 228 241 243 245 243 253 251 251 252 251 250 251 251 252 253 253 254 255 256 256 258 260 263
168 150 160 129 104 98 101 103 132 154 152 186 270 273 247 238 243 253 255 247 248 257 253 252 253 253 253 253 253 254 254 254 255 256 257 258 259 262
177 172 174 146 141 147 137 143 166 132 132 154 234 264 276 278 288 289 284 287 274 266 258 256 257 258 258 257 257 256 255 254 254 255 256 257 259 261
185 183 184 176 180 180 174 183 164 120 119 143 214 271 284 304 54 299 309 301 292 291 289 279 270 269 267 265 263 259 256 254 254 255 254 254 256 257
191 190 194 192 193 189 183 184 161 148 144 148 214 282 282 291 257 247 261 292 294 275 292 291 285 280 276 269 264 260 257 253 252 252 252 253 254 255
191 204 207 202 202 199 198 193 181 176 183 187 210 222 243 237 235 228 233 297 295 283 268 284 273 273 271 260 259 262 260 256 254 254 254 255 255 255
187 192 211 210 201 204 215 220 221 215 201 187 203 221 224 222 208 227 228 224 240 255 241 279 276 274 272 272 270 271 268 263 260 260 259 258 256 256
190 190 199 216 216 204 211 225 239 240 224 209 210 225 227 222 208 211 223 247 269 265 201 254 275 269 278 276 276 272 268 267 267 266 264 263 262 261
209 205 203 215 227 216 206 221 245 261 254 233 224 233 238 237 221 198 236 251 283 282 215 213 261 275 279 274 275 274 272 274 275 273 270 268 265 264
222 225 222 221 228 217 205 209 232 249 254 262 252 256 252 252 238 213 210 218 243 272 248 205 246 269 294 278 272 277 279 277 276 274 271 267 265 257
217 225 230 223 223 220 208 208 225 230 232 239 252 262 264 258 250 229 212 208 219 241 242 201 236 232 234 276 285 269 264 272 279 275 271 267 262 240
213 218 223 221 224 227 222 228 232 228 223 237 252 258 258 258 254 246 232 225 226 236 248 215 224 232 240 263 274 279 275 266 263 269 274 278 269 253
216 219 226 231 232 234 234 234 228 213 212 231 246 251 247 250 258 266 265 249 248 250 254 238 232 242 229 244 259 265 281 279 263 265 272 269 266 263
229 230 231 232 232 241 248 242 222 212 212 229 242 252 257 260 258 254 261 269 274 279 269 255 243 237 247 251 254 267 262 266 280 272 269 270 264 252
187 191 208 222 240 245 245 245 233 225 231 238 243 256 262 264 265 260 251 252 251 267 282 286 269 250 240 244 258 259 262 267 266 270 272 277 271 262
163 192 215 219 224 229 234 243 235 234 238 239 243 247 252 257 266 268 254 247 255 262 267 275 294 315 318 280 236 251 263 265 270 269 257 266 278 274
170 207 215 217 221 224 229 232 241 244 239 236 243 248 252 257 262 268 270 268 267 267 269 268 261 254 279 285 278 237 247 270 274 275 262 252 267 274
193 206 215 222 227 234 236 237 245 251 243 242 245 248 247 250 259 264 262 260 266 270 276 273 258 246 250 264 270 272 252 250 260 270 273 271 267 272
200 207 209 210 217 223 237 248 253 259 262 252 249 249 248 247 254 258 261 267 267 271 275 273 267 264 260 269 280 279 270 252 244 253 267 279 286 287
171 189 207 200 198 198 206 233 265 275 272 263 265 264 260 255 259 263 266 270 269 268 272 275 282 282 260 259 270 277 284 288 277 267 258 246 249 261
159 162 191 202 202 199 212 270 283 287 281 277 280 281 280 275 272 272 275 275 278 280 283 286 289 280 267 265 273 280 284 289 292 298 289 272 256 256